Location: Ch�tillon
(48.8024°N, 2.2935°E)
Time: 21:48:57
(UTC+00:00)

EO-88 - Visible Passes

Search period start: 28 June 2022 00:00
Search period end: 08 July 2022 00:00
Orbit: 457 x 464 km, 97.3° (Epoch: 28 June)

Date Brightness Start Highest point End Pass type
(mag) Time Alt. Az. Time Alt. Az. Time Alt. Az.
28 Jun ? 21:58:16 10° SSW 22:01:08 23° W 22:04:00 10° NW visible
29 Jun ? 21:26:11 11° S 21:29:24 56° W 21:32:51 10° NNW visible
30 Jun ? 20:54:24 10° SSE 20:57:48 58° ENE 21:01:15 10° N visible
30 Jun ? 22:30:04 10° WSW 22:31:10 11° W 22:32:16 10° WNW visible
01 Jul ? 21:56:23 10° SSW 21:59:17 24° W 22:02:12 10° NW visible
02 Jul ? 21:24:19 12° S 21:27:31 59° W 21:30:59 10° NNW visible
03 Jul ? 20:52:30 10° SSE 20:55:53 54° ENE 20:59:18 10° N visible
03 Jul ? 22:27:53 10° WSW 22:29:12 12° W 22:30:32 10° WNW visible
04 Jul ? 21:54:20 10° SSW 21:57:17 26° W 22:00:15 10° NW visible
05 Jul ? 21:22:19 12° S 21:25:29 63° W 21:28:56 10° NNW visible
06 Jul ? 20:50:26 10° SSE 20:53:48 51° ENE 20:57:11 10° N visible
06 Jul ? 22:25:35 10° WSW 22:27:06 12° W 22:28:37 10° WNW visible
07 Jul ? 21:52:12 10° SSW 21:55:08 27° W 21:58:09 10° NW visible
